Location: Unspecified
(0.0000°N, 0.0000°E)
Time: 02:15:06
(UTC+00:00)

Vanguard 1 - Visible Passes

Search period start: 26 May 2019 00:00
Search period end: 05 June 2019 00:00
Orbit: 653 x 3830 km, 34.2° (Epoch: 25 May)

Date Brightness Start Highest point End Pass type
(mag) Time Alt. Az. Time Alt. Az. Time Alt. Az.
26 May 12.9 03:27:47 18° S 03:30:19 19° SSE 03:36:51 10° SE visible
26 May 13.1 20:01:20 10° WNW 20:18:42 52° SSW 20:30:24 33° SSE visible
26 May 13.8 22:32:52 10° WSW 22:43:08 22° SW 22:43:08 22° SW visible
27 May 12.6 03:47:42 19° S 03:52:42 24° SSE 03:59:37 10° ESE visible
27 May 12.5 17:59:42 10° NW 18:13:21 88° NE 18:36:17 10° SE visible
27 May 13.2 20:23:42 10° W 20:41:04 43° SSW 20:50:20 33° S visible
27 May 14.0 22:57:48 10° WSW 23:03:03 16° SW 23:03:03 16° SW visible
28 May 13.5 01:54:55 11° SE 01:54:55 11° SE 01:55:23 10° SE visible
28 May 12.2 04:07:39 19° SSW 04:14:48 32° SSE 04:21:51 10° E visible
28 May 12.6 18:20:53 10° WNW 18:34:58 75° SW 18:57:31 11° SE visible
28 May 13.4 20:46:35 10° W 21:03:44 35° SSW 21:10:14 31° S visible
28 May 14.2 23:22:52 10° SW 23:22:57 10° SW 23:22:57 10° SW visible
29 May 13.2 02:14:52 17° SE 02:14:52 17° SE 02:18:46 10° SE visible
29 May 11.7 04:27:36 18° SSW 04:36:38 44° SSE 04:43:38 10° E visible
29 May 12.8 18:42:22 10° WNW 18:56:49 61° SSW 19:17:22 14° SE visible
29 May 13.5 21:10:05 10° WSW 21:26:47 29° SSW 21:30:06 28° S visible
30 May 12.9 02:34:49 24° SSE 02:34:49 24° SSE 02:41:47 10° ESE visible
30 May 11.2 04:47:33 15° SW 04:58:12 62° SSE 05:05:02 10° ENE visible
30 May 13.0 19:04:13 10° W 19:18:57 49° SSW 19:37:12 17° SE visible
30 May 13.7 21:34:08 10° WSW 21:49:56 24° SSW 21:49:56 24° SSW visible
31 May 12.6 02:54:47 31° SSE 02:55:21 31° SSE 03:04:20 10° E visible
31 May 10.9 05:07:31 11° SW 05:19:29 89° SE 05:26:06 10° NE visible
31 May 13.2 19:26:29 10° W 19:41:22 40° SSW 19:57:01 19° SSE visible
31 May 13.8 21:58:37 10° SW 22:09:44 20° SSW 22:09:44 20° SSW visible
01 Jun 12.2 03:14:45 37° S 03:17:32 40° SSE 03:26:26 10° E visible
01 Jun 10.9 05:28:47 10° WSW 05:40:30 63° NW 05:46:52 10° NE visible
01 Jun 13.4 19:49:16 10° W 20:04:07 32° SSW 20:16:47 21° SSE visible
01 Jun 14.0 22:23:07 10° SW 22:29:30 16° SSW 22:29:30 16° SSW visible
02 Jun 13.5 01:21:59 13° ESE 01:21:59 13° ESE 01:23:08 10° ESE visible
02 Jun 11.8 03:34:42 40° SSW 03:39:26 53° SSE 03:48:06 10° ENE visible
02 Jun 13.6 20:12:34 10° WSW 20:27:13 27° SSW 20:36:31 21° SSE visible
02 Jun 14.1 22:47:10 10° SW 22:49:13 12° SW 22:49:13 12° SW visible
03 Jun 13.2 01:41:55 21° ESE 01:41:55 21° ESE 01:46:06 10° ESE visible
03 Jun 11.4 03:54:38 38° SW 04:01:03 71° SE 04:09:27 10° ENE visible
03 Jun 13.0 18:07:43 10° W 18:19:55 45° SSW 18:39:51 10° SE visible
03 Jun 13.7 20:36:21 10° WSW 20:50:43 23° SSW 20:56:13 21° S visible
04 Jun 12.8 02:01:50 32° SE 02:01:50 32° SE 02:08:36 10° E visible
04 Jun 11.2 04:14:34 32° SW 04:22:23 86° NW 04:30:29 10° NE visible
04 Jun 13.2 18:29:57 10° W 18:42:19 36° SSW 19:01:17 10° SE visible
04 Jun 13.7 21:00:25 10° SW 21:14:34 21° S 21:15:53 21° S visible
